| time (UTC) | temp F | wind direction | speed MPH | gust MPH | rain 1hr in | rain 24hr in | rain mn in | humidity % | barometer mb |
| 20260507191512 | 71 | 110 | 1.0 | 6.0 | 0.00 | 0.00 | 0.00 | 50 | 1017.5 |
| 20260507191004 | 71 | 285 | 1.0 | 6.0 | 0.00 | 0.00 | 0.00 | 51 | 1017.8 |
| 20260507190501 | 71 | 70 | 3.0 | 5.0 | 0.00 | 0.00 | 0.00 | 47 | 1017.9 |
| 20260507190005 | 71 | 71 | 2.0 | 5.0 | 0.00 | 0.00 | 0.00 | 48 | 1017.9 |
| 20260507185503 | 70 | 78 | 1.0 | 5.0 | 0.00 | 0.00 | 0.00 | 51 | 1018.0 |
| 20260507185006 | 70 | 36 | 2.0 | 5.0 | 0.00 | 0.00 | 0.00 | 50 | 1017.9 |
| 20260507184510 | 70 | 16 | 1.0 | 11.0 | 0.00 | 0.00 | 0.00 | 49 | 1018.0 |
| 20260507184004 | 70 | 18 | 3.0 | 11.0 | 0.00 | 0.00 | 0.00 | 49 | 1018.0 |
| 20260507183503 | 70 | 34 | 5.0 | 10.0 | 0.00 | 0.00 | 0.00 | 49 | 1018.0 |
| 20260507183012 | 69 | 13 | 3.0 | 10.0 | 0.00 | 0.00 | 0.00 | 49 | 1017.9 |
| 20260507182503 | 70 | 341 | 2.0 | 9.0 | 0.00 | 0.00 | 0.00 | 50 | 1017.9 |
| 20260507182004 | 70 | 340 | 4.0 | 9.0 | 0.00 | 0.00 | 0.00 | 49 | 1017.8 |
| 20260507181508 | 70 | 352 | 4.0 | 9.0 | 0.00 | 0.00 | 0.00 | 49 | 1017.9 |
| 20260507181005 | 69 | 34 | 4.0 | 9.0 | 0.00 | 0.00 | 0.00 | 50 | 1017.9 |
| 20260507180502 | 69 | 240 | 3.0 | 10.0 | 0.00 | 0.00 | 0.00 | 50 | 1017.9 |
| 20260507180009 | 69 | 42 | 4.0 | 10.0 | 0.00 | 0.00 | 0.00 | 49 | 1017.9 |
| 20260507175500 | 69 | 18 | 4.0 | 11.0 | 0.00 | 0.00 | 0.00 | 49 | 1018.0 |
| 20260507175004 | 69 | 80 | 4.0 | 11.0 | 0.00 | 0.00 | 0.00 | 48 | 1018.0 |
| 20260507174508 | 69 | 49 | 4.0 | 10.0 | 0.00 | 0.00 | 0.00 | 48 | 1018.0 |
| 20260507174003 | 69 | 56 | 6.0 | 10.0 | 0.00 | 0.00 | 0.00 | 49 | 1018.2 |
| 20260507173503 | 69 | 348 | 5.0 | 9.0 | 0.00 | 0.00 | 0.00 | 48 | 1018.2 |
| 20260507173008 | 69 | 53 | 4.0 | 10.0 | 0.00 | 0.00 | 0.00 | 49 | 1018.3 |
| 20260507172504 | 68 | 60 | 3.0 | 10.0 | 0.00 | 0.00 | 0.00 | 50 | 1018.5 |
| 20260507172003 | 68 | 325 | 5.0 | 11.0 | 0.00 | 0.00 | 0.00 | 50 | 1018.6 |
| 20260507171520 | 68 | 285 | 4.0 | 11.0 | 0.00 | 0.00 | 0.00 | 51 | 1018.8 |
| 20260507171004 | 67 | 90 | 4.0 | 10.0 | 0.00 | 0.00 | 0.00 | 53 | 1018.9 |
| 20260507170503 | 68 | 79 | 3.0 | 8.0 | 0.00 | 0.00 | 0.00 | 52 | 1019.1 |
| 20260507170011 | 67 | 54 | 4.0 | 11.0 | 0.00 | 0.00 | 0.00 | 53 | 1019.2 |
| 20260507165505 | 66 | 360 | 4.0 | 11.0 | 0.00 | 0.00 | 0.00 | 52 | 1019.4 |
| 20260507165006 | 66 | 342 | 4.0 | 8.0 | 0.00 | 0.00 | 0.00 | 54 | 1019.5 |
| 20260507164513 | 66 | 10 | 4.0 | 8.0 | 0.00 | 0.00 | 0.00 | 54 | 1019.6 |
| 20260507164004 | 66 | 352 | 4.0 | 7.0 | 0.00 | 0.00 | 0.00 | 55 | 1019.6 |
| 20260507163504 | 66 | 352 | 3.0 | 9.0 | 0.00 | 0.00 | 0.00 | 54 | 1019.8 |
| 20260507163013 | 65 | 5 | 0.0 | 9.0 | 0.00 | 0.00 | 0.00 | 58 | 1019.8 |
| 20260507162507 | 65 | 345 | 3.0 | 8.0 | 0.00 | 0.00 | 0.00 | 56 | 1019.9 |
| 20260507162004 | 65 | 57 | 2.0 | 6.0 | 0.00 | 0.00 | 0.00 | 56 | 1019.7 |
| 20260507161509 | 65 | 36 | 3.0 | 5.0 | 0.00 | 0.00 | 0.00 | 57 | 1019.7 |
| 20260507161004 | 65 | 51 | 2.0 | 6.0 | 0.00 | 0.00 | 0.00 | 58 | 1019.7 |
| 20260507160504 | 65 | 65 | 2.0 | 5.0 | 0.00 | 0.00 | 0.00 | 58 | 1019.8 |
| 20260507160012 | 65 | 68 | 2.0 | 8.0 | 0.00 | 0.00 | 0.00 | 58 | 1019.8 |
| 20260507155504 | 65 | 17 | 2.0 | 8.0 | 0.00 | 0.00 | 0.00 | 59 | 1019.8 |
| 20260507155004 | 65 | 5 | 3.0 | 7.0 | 0.00 | 0.00 | 0.00 | 59 | 1019.7 |
| 20260507154513 | 65 | 33 | 3.0 | 8.0 | 0.00 | 0.00 | 0.00 | 60 | 1019.7 |
| 20260507154009 | 64 | 128 | 1.0 | 8.0 | 0.00 | 0.00 | 0.00 | 61 | 1019.7 |
| 20260507153504 | 64 | 28 | 2.0 | 9.0 | 0.00 | 0.00 | 0.00 | 61 | 1019.7 |
| 20260507153008 | 64 | 46 | 4.0 | 9.0 | 0.00 | 0.00 | 0.00 | 59 | 1019.7 |
| 20260507152504 | 64 | 342 | 2.0 | 8.0 | 0.00 | 0.00 | 0.00 | 60 | 1019.8 |
| 20260507152003 | 64 | 32 | 4.0 | 6.0 | 0.00 | 0.00 | 0.00 | 60 | 1019.9 |
| 20260507151515 | 64 | 335 | 3.0 | 8.0 | 0.00 | 0.00 | 0.00 | 60 | 1019.9 |
| 20260507151003 | 64 | 329 | 4.0 | 9.0 | 0.00 | 0.00 | 0.00 | 61 | 1020.0 |
| 20260507150503 | 63 | 74 | 1.0 | 9.0 | 0.00 | 0.00 | 0.00 | 62 | 1020.0 |
| 20260507150012 | 63 | 21 | 3.0 | 9.0 | 0.00 | 0.00 | 0.00 | 61 | 1020.0 |
| 20260507145507 | 63 | 351 | 3.0 | 8.0 | 0.00 | 0.00 | 0.00 | 62 | 1020.0 |
| 20260507145004 | 63 | 19 | 3.0 | 10.0 | 0.00 | 0.00 | 0.00 | 61 | 1020.0 |
| 20260507144516 | 63 | 78 | 3.0 | 10.0 | 0.00 | 0.01 | 0.00 | 61 | 1020.1 |
| 20260507144005 | 64 | 5 | 3.0 | 6.0 | 0.00 | 0.01 | 0.00 | 63 | 1020.1 |
| 20260507143502 | 63 | 39 | 2.0 | 4.0 | 0.00 | 0.01 | 0.00 | 64 | 1020.2 |
| 20260507143020 | 63 | 47 | 1.0 | 5.0 | 0.00 | 0.01 | 0.00 | 64 | 1020.3 |
| 20260507142505 | 62 | 59 | 2.0 | 6.0 | 0.00 | 0.01 | 0.00 | 64 | 1020.2 |
| 20260507142006 | 62 | 360 | 2.0 | 6.0 | 0.00 | 0.01 | 0.00 | 65 | 1020.3 |
| 20260507141511 | 62 | 51 | 2.0 | 5.0 | 0.00 | 0.01 | 0.00 | 65 | 1020.3 |
| 20260507141004 | 61 | 28 | 2.0 | 5.0 | 0.00 | 0.01 | 0.00 | 66 | 1020.4 |
| 20260507140508 | 61 | 352 | 1.0 | 5.0 | 0.00 | 0.01 | 0.00 | 68 | 1020.3 |
| 20260507140015 | 60 | 32 | 1.0 | 5.0 | 0.00 | 0.01 | 0.00 | 69 | 1020.2 |
| 20260507135503 | 60 | 17 | 2.0 | 5.0 | 0.00 | 0.01 | 0.00 | 71 | 1020.2 |
| 20260507135010 | 59 | 12 | 2.0 | 5.0 | 0.00 | 0.01 | 0.00 | 71 | 1020.3 |
| 20260507134519 | 59 | 74 | 1.0 | 5.0 | 0.00 | 0.01 | 0.00 | 73 | 1020.4 |
| 20260507134004 | 59 | 348 | 2.0 | 4.0 | 0.00 | 0.01 | 0.00 | 73 | 1020.4 |
| 20260507133503 | 58 | 351 | 1.0 | 3.0 | 0.00 | 0.01 | 0.00 | 74 | 1020.5 |
| 20260507133017 | 58 | 342 | 1.0 | 3.0 | 0.00 | 0.01 | 0.00 | 75 | 1020.6 |
| 20260507132506 | 57 | 48 | 1.0 | 3.0 | 0.00 | 0.01 | 0.00 | 77 | 1020.8 |
| 20260507132009 | 56 | 59 | 0.0 | 2.0 | 0.00 | 0.01 | 0.00 | 79 | 1020.8 |
| 20260507131527 | 56 | 360 | 1.0 | 2.0 | 0.00 | 0.01 | 0.00 | 80 | 1020.8 |
| 20260507131004 | 55 | 338 | 0.0 | 2.0 | 0.00 | 0.01 | 0.00 | 83 | 1020.7 |
| 20260507130504 | 55 | 36 | 0.0 | 0.0 | 0.00 | 0.01 | 0.00 | 85 | 1020.6 |
| 20260507130019 | 54 | 98 | 0.0 | 0.0 | 0.00 | 0.01 | 0.00 | 86 | 1020.5 |
| 20260507125507 | 53 | 98 | 0.0 | 0.0 | 0.00 | 0.01 | 0.00 | 88 | 1020.5 |
| 20260507125004 | 52 | 98 | 0.0 | 0.0 | 0.00 | 0.01 | 0.00 | 87 | 1020.4 |
| 20260507124519 | 52 | 98 | 0.0 | 0.0 | 0.00 | 0.01 | 0.00 | 87 | 1020.4 |
| 20260507124008 | 52 | 98 | 0.0 | 0.0 | 0.00 | 0.01 | 0.00 | 87 | 1020.4 |
| 20260507123505 | 51 | 98 | 0.0 | 0.0 | 0.00 | 0.01 | 0.00 | 87 | 1020.3 |
| 20260507123020 | 51 | 98 | 0.0 | 0.0 | 0.00 | 0.01 | 0.00 | 86 | 1020.2 |
| 20260507122504 | 51 | 98 | 0.0 | 0.0 | 0.00 | 0.01 | 0.00 | 86 | 1020.3 |
| 20260507122007 | 51 | 98 | 0.0 | 0.0 | 0.00 | 0.01 | 0.00 | 86 | 1020.3 |
| 20260507121519 | 51 | 98 | 0.0 | 0.0 | 0.00 | 0.01 | 0.00 | 85 | 1020.3 |
| 20260507121008 | 51 | 98 | 0.0 | 0.0 | 0.00 | 0.01 | 0.00 | 85 | 1020.3 |
| 20260507120508 | 51 | 98 | 0.0 | 0.0 | 0.00 | 0.01 | 0.00 | 85 | 1020.3 |
| 20260507120035 | 51 | 98 | 0.0 | 0.0 | 0.00 | 0.01 | 0.00 | 85 | 1020.4 |
| 20260507115503 | 51 | 360 | 0.0 | 0.0 | 0.00 | 0.01 | 0.00 | 85 | 1020.4 |
| 20260507115006 | 51 | 360 | 0.0 | 0.0 | 0.00 | 0.01 | 0.00 | 85 | 1020.1 |
| 20260507114518 | 51 | 360 | 0.0 | 0.0 | 0.00 | 0.01 | 0.00 | 85 | 1020.4 |
| 20260507114009 | 51 | 360 | 0.0 | 0.0 | 0.00 | 0.01 | 0.00 | 85 | 1020.5 |
| 20260507113506 | 51 | 360 | 0.0 | 2.0 | 0.00 | 0.01 | 0.00 | 85 | 1020.3 |
| 20260507113035 | 51 | 360 | 0.0 | 2.0 | 0.00 | 0.01 | 0.00 | 85 | 1020.3 |
| 20260507112512 | 51 | 10 | 0.0 | 2.0 | 0.00 | 0.01 | 0.00 | 85 | 1020.0 |
| 20260507112015 | 51 | 323 | 0.0 | 3.0 | 0.00 | 0.01 | 0.00 | 85 | 1020.0 |
| 20260507111520 | 51 | 360 | 0.0 | 4.0 | 0.00 | 0.01 | 0.00 | 86 | 1020.0 |
| 20260507111006 | 51 | 351 | 1.0 | 4.0 | 0.00 | 0.01 | 0.00 | 86 | 1019.9 |
| 20260507110505 | 51 | 336 | 1.0 | 4.0 | 0.00 | 0.01 | 0.00 | 86 | 1019.8 |
| 20260507110022 | 51 | 14 | 2.0 | 4.0 | 0.00 | 0.01 | 0.00 | 86 | 1019.8 |
| 20260507105505 | 51 | 339 | 2.0 | 3.0 | 0.00 | 0.01 | 0.00 | 87 | 1019.8 |
| 20260507105007 | 50 | 352 | 2.0 | 3.0 | 0.00 | 0.01 | 0.00 | 87 | 1019.7 |
| 20260507104516 | 50 | 360 | 0.0 | 3.0 | 0.00 | 0.01 | 0.00 | 87 | 1019.8 |
| 20260507104005 | 50 | 335 | 0.0 | 3.0 | 0.00 | 0.01 | 0.00 | 86 | 1019.7 |
| 20260507103504 | 51 | 322 | 1.0 | 2.0 | 0.00 | 0.01 | 0.00 | 86 | 1019.7 |
| 20260507103020 | 51 | 331 | 0.0 | 2.0 | 0.00 | 0.01 | 0.00 | 86 | 1019.7 |
| 20260507102500 | 51 | 321 | 0.0 | 0.0 | 0.00 | 0.01 | 0.00 | 86 | 1019.7 |
| 20260507102000 | 51 | 337 | 0.0 | 0.0 | 0.00 | 0.01 | 0.00 | 86 | 1019.5 |
| 20260507101507 | 51 | 337 | 0.0 | 0.0 | 0.00 | 0.01 | 0.00 | 85 | 1019.4 |
| 20260507101004 | 51 | 337 | 0.0 | 0.0 | 0.00 | 0.01 | 0.00 | 85 | 1019.5 |
| 20260507100504 | 51 | 337 | 0.0 | 0.0 | 0.00 | 0.01 | 0.00 | 85 | 1019.4 |
| 20260507100010 | 51 | 337 | 0.0 | 0.0 | 0.00 | 0.01 | 0.00 | 85 | 1019.4 |
| 20260507095505 | 51 | 337 | 0.0 | 0.0 | 0.00 | 0.01 | 0.00 | 85 | 1019.2 |
| 20260507095005 | 51 | 337 | 0.0 | 2.0 | 0.00 | 0.01 | 0.00 | 84 | 1018.9 |
| 20260507094513 | 51 | 337 | 0.0 | 2.0 | 0.00 | 0.01 | 0.00 | 84 | 1018.8 |
| 20260507094003 | 52 | 346 | 0.0 | 2.0 | 0.00 | 0.01 | 0.00 | 84 | 1018.8 |
| 20260507093508 | 52 | 346 | 0.0 | 2.0 | 0.00 | 0.01 | 0.00 | 84 | 1018.8 |
| 20260507093019 | 52 | 304 | 0.0 | 2.0 | 0.00 | 0.01 | 0.00 | 83 | 1018.8 |
| 20260507092507 | 52 | 312 | 0.0 | 3.0 | 0.00 | 0.01 | 0.00 | 83 | 1018.7 |
| 20260507092013 | 52 | 324 | 0.0 | 3.0 | 0.00 | 0.01 | 0.00 | 83 | 1018.6 |
| 20260507091503 | 52 | 352 | 0.0 | 4.0 | 0.00 | 0.01 | 0.00 | 83 | 1018.5 |
| 20260507091003 | 52 | 352 | 2.0 | 4.0 | 0.00 | 0.01 | 0.00 | 83 | 1018.4 |
| 20260507090503 | 52 | 306 | 0.0 | 2.0 | 0.00 | 0.01 | 0.00 | 82 | 1018.5 |
| 20260507090004 | 53 | 5 | 0.0 | 4.0 | 0.00 | 0.01 | 0.00 | 82 | 1018.4 |
| 20260507085503 | 53 | 11 | 1.0 | 4.0 | 0.00 | 0.01 | 0.00 | 82 | 1018.2 |
| 20260507085003 | 53 | 346 | 1.0 | 5.0 | 0.00 | 0.01 | 0.00 | 82 | 1018.1 |
| 20260507084512 | 53 | 360 | 1.0 | 5.0 | 0.00 | 0.01 | 0.00 | 82 | 1018.0 |
| 20260507084003 | 53 | 351 | 1.0 | 6.0 | 0.00 | 0.01 | 0.00 | 82 | 1018.0 |
| 20260507083503 | 53 | 5 | 3.0 | 6.0 | 0.00 | 0.01 | 0.00 | 82 | 1017.9 |
| 20260507083018 | 53 | 5 | 2.0 | 5.0 | 0.00 | 0.01 | 0.00 | 81 | 1017.9 |
| 20260507082508 | 53 | 15 | 2.0 | 6.0 | 0.00 | 0.01 | 0.00 | 81 | 1017.9 |
| 20260507082009 | 53 | 60 | 2.0 | 8.0 | 0.00 | 0.01 | 0.00 | 81 | 1017.8 |
| 20260507081530 | 53 | 346 | 2.0 | 7.0 | 0.00 | 0.01 | 0.00 | 81 | 1017.7 |
| 20260507081007 | 53 | 360 | 2.0 | 8.0 | 0.00 | 0.01 | 0.00 | 81 | 1017.7 |
| 20260507080508 | 53 | 335 | 3.0 | 8.0 | 0.00 | 0.01 | 0.00 | 81 | 1017.8 |
| 20260507080005 | 53 | 53 | 3.0 | 5.0 | 0.00 | 0.01 | 0.00 | 81 | 1017.9 |
| 20260507075501 | 53 | 5 | 3.0 | 8.0 | 0.00 | 0.01 | 0.00 | 81 | 1018.0 |
| 20260507075001 | 54 | 360 | 2.0 | 8.0 | 0.00 | 0.01 | 0.00 | 81 | 1017.9 |
| 20260507074513 | 54 | 329 | 3.0 | 8.0 | 0.00 | 0.01 | 0.00 | 81 | 1017.7 |
| 20260507074005 | 54 | 10 | 3.0 | 8.0 | 0.00 | 0.01 | 0.00 | 80 | 1017.5 |
| 20260507073504 | 54 | 5 | 4.0 | 8.0 | 0.00 | 0.01 | 0.00 | 80 | 1017.6 |
| 20260507073015 | 54 | 20 | 3.0 | 8.0 | 0.00 | 0.01 | 0.00 | 80 | 1017.7 |
| 20260507072504 | 54 | 274 | 3.0 | 8.0 | 0.00 | 0.01 | 0.00 | 80 | 1017.7 |
| 20260507072003 | 54 | 5 | 3.0 | 5.0 | 0.00 | 0.01 | 0.00 | 80 | 1017.8 |
| 20260507071524 | 54 | 17 | 2.0 | 5.0 | 0.00 | 0.01 | 0.00 | 80 | 1017.8 |
| 20260507071007 | 54 | 352 | 3.0 | 8.0 | 0.00 | 0.01 | 0.00 | 80 | 1017.8 |
| 20260507070508 | 54 | 336 | 3.0 | 8.0 | 0.00 | 0.01 | 0.00 | 80 | 1017.7 |
| 20260507070022 | 54 | 336 | 3.0 | 5.0 | 0.00 | 0.01 | 0.00 | 80 | 1017.6 |
| 20260507065513 | 54 | 341 | 2.0 | 6.0 | 0.00 | 0.01 | 0.00 | 80 | 1017.6 |
| 20260507065002 | 54 | 19 | 2.0 | 6.0 | 0.00 | 0.01 | 0.00 | 80 | 1017.5 |
| 20260507064505 | 54 | 360 | 2.0 | 6.0 | 0.00 | 0.01 | 0.00 | 81 | 1017.5 |
| 20260507064006 | 54 | 9 | 3.0 | 6.0 | 0.00 | 0.01 | 0.00 | 81 | 1017.3 |
| 20260507063504 | 54 | 5 | 3.0 | 8.0 | 0.00 | 0.01 | 0.00 | 80 | 1017.2 |
| 20260507063010 | 54 | 352 | 3.0 | 8.0 | 0.00 | 0.01 | 0.00 | 80 | 1017.2 |
| 20260507062506 | 55 | 13 | 3.0 | 6.0 | 0.00 | 0.01 | 0.00 | 80 | 1017.1 |
| 20260507062007 | 55 | 348 | 2.0 | 6.0 | 0.00 | 0.01 | 0.00 | 80 | 1017.0 |
| 20260507061529 | 55 | 352 | 2.0 | 6.0 | 0.00 | 0.01 | 0.00 | 80 | 1017.1 |
| 20260507061009 | 55 | 360 | 2.0 | 5.0 | 0.00 | 0.01 | 0.00 | 80 | 1017.0 |
| 20260507060507 | 55 | 350 | 2.0 | 5.0 | 0.00 | 0.01 | 0.00 | 80 | 1017.0 |
| 20260507060020 | 55 | 24 | 3.0 | 5.0 | 0.00 | 0.01 | 0.00 | 80 | 1016.9 |
| 20260507055508 | 55 | 340 | 2.0 | 4.0 | 0.00 | 0.01 | 0.00 | 79 | 1016.8 |
| 20260507055012 | 55 | 28 | 0.0 | 5.0 | 0.00 | 0.01 | 0.00 | 79 | 1016.8 |
| 20260507054525 | 55 | 59 | 1.0 | 5.0 | 0.00 | 0.01 | 0.00 | 79 | 1016.9 |
| 20260507054008 | 55 | 38 | 1.0 | 5.0 | 0.00 | 0.01 | 0.00 | 79 | 1016.9 |
| 20260507053504 | 55 | 44 | 2.0 | 5.0 | 0.00 | 0.01 | 0.00 | 79 | 1016.9 |
| 20260507053010 | 55 | 56 | 2.0 | 5.0 | 0.00 | 0.01 | 0.00 | 79 | 1017.0 |
| 20260507052502 | 55 | 360 | 1.0 | 5.0 | 0.00 | 0.01 | 0.00 | 79 | 1017.0 |
| 20260507052006 | 55 | 51 | 2.0 | 5.0 | 0.00 | 0.01 | 0.00 | 79 | 1016.9 |
| 20260507051515 | 55 | 352 | 1.0 | 6.0 | 0.00 | 0.01 | 0.00 | 79 | 1017.2 |
| 20260507051006 | 56 | 22 | 1.0 | 9.0 | 0.00 | 0.01 | 0.00 | 78 | 1017.1 |
| 20260507050508 | 56 | 51 | 2.0 | 9.0 | 0.00 | 0.01 | 0.00 | 78 | 1017.0 |
| 20260507050021 | 56 | 43 | 2.0 | 5.0 | 0.00 | 0.01 | 0.00 | 78 | 1017.0 |
| 20260507045506 | 56 | 343 | 2.0 | 6.0 | 0.00 | 0.01 | 0.01 | 78 | 1016.9 |
| 20260507045009 | 56 | 95 | 2.0 | 6.0 | 0.00 | 0.01 | 0.01 | 78 | 1017.0 |
| 20260507044524 | 56 | 89 | 2.0 | 8.0 | 0.00 | 0.01 | 0.01 | 77 | 1016.8 |
| 20260507044008 | 56 | 26 | 1.0 | 8.0 | 0.00 | 0.01 | 0.01 | 77 | 1016.8 |
| 20260507043511 | 56 | 19 | 3.0 | 7.0 | 0.00 | 0.01 | 0.01 | 77 | 1016.8 |
| 20260507043031 | 56 | 45 | 2.0 | 7.0 | 0.00 | 0.01 | 0.01 | 77 | 1016.8 |
| 20260507042503 | 56 | 77 | 2.0 | 9.0 | 0.00 | 0.01 | 0.01 | 77 | 1016.7 |
| 20260507042004 | 56 | 338 | 1.0 | 9.0 | 0.00 | 0.01 | 0.01 | 77 | 1016.8 |
| 20260507041511 | 56 | 46 | 2.0 | 7.0 | 0.00 | 0.01 | 0.01 | 77 | 1017.0 |
| 20260507041005 | 57 | 24 | 2.0 | 7.0 | 0.00 | 0.01 | 0.01 | 76 | 1017.0 |
| 20260507040505 | 57 | 5 | 2.0 | 8.0 | 0.00 | 0.01 | 0.01 | 76 | 1017.1 |
| 20260507040017 | 57 | 76 | 0.0 | 8.0 | 0.00 | 0.01 | 0.01 | 76 | 1017.1 |
| 20260507035503 | 57 | 20 | 2.0 | 8.0 | 0.00 | 0.01 | 0.01 | 76 | 1017.1 |
| 20260507035010 | 57 | 15 | 3.0 | 9.0 | 0.00 | 0.01 | 0.01 | 76 | 1017.1 |
| 20260507034532 | 57 | 5 | 3.0 | 9.0 | 0.00 | 0.01 | 0.01 | 76 | 1017.1 |
| 20260507034009 | 57 | 30 | 3.0 | 8.0 | 0.00 | 0.01 | 0.01 | 76 | 1017.1 |
| 20260507033505 | 57 | 71 | 3.0 | 8.0 | 0.00 | 0.01 | 0.01 | 76 | 1017.1 |
| 20260507033028 | 58 | 36 | 2.0 | 8.0 | 0.00 | 0.01 | 0.01 | 76 | 1017.1 |
| 20260507032511 | 58 | 306 | 2.0 | 10.0 | 0.00 | 0.01 | 0.01 | 75 | 1017.1 |
| 20260507032010 | 58 | 23 | 3.0 | 10.0 | 0.00 | 0.01 | 0.01 | 75 | 1017.1 |
| 20260507031510 | 58 | 9 | 4.0 | 12.0 | 0.00 | 0.01 | 0.01 | 75 | 1017.1 |
| 20260507031007 | 58 | 352 | 4.0 | 12.0 | 0.00 | 0.01 | 0.01 | 75 | 1017.0 |
| 20260507030505 | 58 | 22 | 6.0 | 10.0 | 0.00 | 0.01 | 0.01 | 74 | 1017.0 |
| 20260507030014 | 58 | 360 | 3.0 | 9.0 | 0.00 | 0.01 | 0.01 | 74 | 1016.9 |
| 20260507025503 | 59 | 352 | 4.0 | 9.0 | 0.00 | 0.01 | 0.01 | 74 | 1016.9 |
| 20260507025007 | 59 | 74 | 3.0 | 9.0 | 0.00 | 0.01 | 0.01 | 73 | 1016.9 |
| 20260507024520 | 59 | 49 | 4.0 | 7.0 | 0.00 | 0.01 | 0.01 | 73 | 1016.8 |
| 20260507024009 | 59 | 352 | 2.0 | 7.0 | 0.00 | 0.01 | 0.01 | 73 | 1016.8 |
| 20260507023509 | 59 | 13 | 3.0 | 8.0 | 0.00 | 0.01 | 0.01 | 73 | 1016.5 |
| 20260507023025 | 59 | 5 | 3.0 | 8.0 | 0.00 | 0.01 | 0.01 | 73 | 1016.5 |
| 20260507022503 | 60 | 319 | 4.0 | 8.0 | 0.00 | 0.01 | 0.01 | 72 | 1016.4 |
| 20260507022004 | 60 | 360 | 4.0 | 10.0 | 0.00 | 0.01 | 0.01 | 72 | 1016.3 |
| 20260507021507 | 60 | 11 | 4.0 | 10.0 | 0.00 | 0.01 | 0.01 | 72 | 1016.3 |
| 20260507021007 | 60 | 352 | 3.0 | 10.0 | 0.00 | 0.01 | 0.01 | 71 | 1016.3 |
| 20260507020505 | 60 | 5 | 3.0 | 10.0 | 0.00 | 0.01 | 0.01 | 71 | 1016.1 |
| 20260507020010 | 61 | 30 | 4.0 | 10.0 | 0.00 | 0.01 | 0.01 | 71 | 1016.0 |
| 20260507015506 | 61 | 24 | 3.0 | 10.0 | 0.00 | 0.01 | 0.01 | 71 | 1015.9 |
| 20260507015006 | 61 | 5 | 4.0 | 10.0 | 0.00 | 0.01 | 0.01 | 70 | 1015.9 |
| 20260507014520 | 61 | 11 | 5.0 | 9.0 | 0.00 | 0.01 | 0.01 | 71 | 1015.8 |
| 20260507014007 | 62 | 16 | 2.0 | 8.0 | 0.00 | 0.01 | 0.01 | 70 | 1015.7 |
| 20260507013503 | 62 | 34 | 2.0 | 8.0 | 0.00 | 0.01 | 0.01 | 70 | 1015.6 |
| 20260507013020 | 62 | 346 | 2.0 | 8.0 | 0.00 | 0.01 | 0.01 | 69 | 1015.5 |
| 20260507012507 | 62 | 19 | 3.0 | 8.0 | 0.00 | 0.01 | 0.01 | 68 | 1015.3 |
| 20260507012007 | 63 | 336 | 3.0 | 8.0 | 0.00 | 0.01 | 0.01 | 68 | 1015.2 |
| 20260507011506 | 63 | 337 | 4.0 | 9.0 | 0.00 | 0.01 | 0.01 | 68 | 1015.1 |
| 20260507011005 | 63 | 329 | 3.0 | 9.0 | 0.00 | 0.01 | 0.01 | 68 | 1015.0 |
| 20260507010503 | 64 | 15 | 3.0 | 9.0 | 0.00 | 0.01 | 0.01 | 67 | 1014.9 |
| 20260507010024 | 64 | 340 | 3.0 | 9.0 | 0.00 | 0.01 | 0.01 | 67 | 1014.8 |
| 20260507005507 | 64 | 46 | 2.0 | 8.0 | 0.00 | 0.01 | 0.01 | 66 | 1014.8 |
| 20260507005004 | 64 | 5 | 3.0 | 7.0 | 0.00 | 0.01 | 0.01 | 66 | 1014.7 |
| 20260507004515 | 65 | 12 | 1.0 | 9.0 | 0.00 | 0.01 | 0.01 | 66 | 1014.7 |
| 20260507004007 | 65 | 15 | 2.0 | 9.0 | 0.00 | 0.01 | 0.01 | 66 | 1014.6 |
| 20260507003505 | 65 | 21 | 3.0 | 6.0 | 0.00 | 0.01 | 0.01 | 65 | 1014.4 |
| 20260507003020 | 66 | 5 | 1.0 | 5.0 | 0.00 | 0.01 | 0.01 | 65 | 1014.4 |
| 20260507002508 | 66 | 54 | 2.0 | 4.0 | 0.00 | 0.01 | 0.01 | 65 | 1014.4 |
| 20260507002012 | 66 | 10 | 1.0 | 6.0 | 0.00 | 0.01 | 0.01 | 65 | 1014.4 |
| 20260507001530 | 66 | 25 | 3.0 | 6.0 | 0.00 | 0.01 | 0.01 | 64 | 1014.2 |
| 20260507001007 | 66 | 61 | 2.0 | 7.0 | 0.00 | 0.01 | 0.01 | 64 | 1014.1 |
| 20260507000505 | 67 | 20 | 2.0 | 7.0 | 0.00 | 0.01 | 0.01 | 63 | 1014.2 |
| 20260507000008 | 67 | 27 | 2.0 | 5.0 | 0.00 | 0.01 | 0.01 | 63 | 1014.2 |
| 20260506235504 | 67 | 75 | 2.0 | 5.0 | 0.00 | 0.01 | 0.01 | 64 | 1014.1 |
| 20260506235004 | 67 | 327 | 3.0 | 7.0 | 0.00 | 0.01 | 0.01 | 64 | 1014.0 |
| 20260506234522 | 67 | 38 | 2.0 | 7.0 | 0.00 | 0.01 | 0.01 | 63 | 1014.1 |
| 20260506234010 | 67 | 22 | 2.0 | 6.0 | 0.00 | 0.01 | 0.01 | 63 | 1013.9 |
| 20260506233504 | 67 | 18 | 3.0 | 6.0 | 0.00 | 0.01 | 0.01 | 63 | 1013.9 |
| 20260506233017 | 67 | 352 | 2.0 | 8.0 | 0.00 | 0.01 | 0.01 | 63 | 1013.8 |
| 20260506232507 | 67 | 340 | 2.0 | 8.0 | 0.00 | 0.01 | 0.01 | 64 | 1013.7 |
| 20260506232008 | 67 | 12 | 4.0 | 8.0 | 0.00 | 0.01 | 0.01 | 62 | 1013.7 |
| 20260506231522 | 67 | 5 | 4.0 | 7.0 | 0.00 | 0.01 | 0.01 | 63 | 1013.8 |
| 20260506231008 | 67 | 331 | 2.0 | 8.0 | 0.00 | 0.01 | 0.01 | 65 | 1013.7 |
| 20260506230509 | 67 | 49 | 4.0 | 8.0 | 0.00 | 0.01 | 0.01 | 64 | 1013.7 |
| 20260506230026 | 67 | 352 | 4.0 | 7.0 | 0.00 | 0.01 | 0.01 | 64 | 1013.6 |
| 20260506225504 | 67 | 5 | 1.0 | 5.0 | 0.00 | 0.01 | 0.01 | 64 | 1013.5 |
| 20260506225004 | 67 | 93 | 2.0 | 11.0 | 0.00 | 0.01 | 0.01 | 64 | 1013.6 |
| 20260506224522 | 67 | 14 | 3.0 | 11.0 | 0.00 | 0.01 | 0.01 | 64 | 1013.5 |
| 20260506224004 | 67 | 321 | 2.0 | 6.0 | 0.00 | 0.01 | 0.01 | 64 | 1013.4 |
| 20260506223507 | 67 | 348 | 3.0 | 11.0 | 0.00 | 0.01 | 0.01 | 63 | 1013.5 |
| 20260506223014 | 68 | 69 | 2.0 | 11.0 | 0.00 | 0.01 | 0.01 | 63 | 1013.6 |
| 20260506222508 | 68 | 23 | 3.0 | 8.0 | 0.00 | 0.01 | 0.01 | 63 | 1013.4 |
| 20260506222008 | 67 | 323 | 2.0 | 7.0 | 0.00 | 0.01 | 0.01 | 65 | 1013.4 |
| 20260506221521 | 67 | 53 | 3.0 | 7.0 | 0.00 | 0.01 | 0.01 | 65 | 1013.5 |
| 20260506221007 | 66 | 67 | 1.0 | 8.0 | 0.00 | 0.01 | 0.01 | 65 | 1013.5 |
| 20260506220509 | 66 | 23 | 2.0 | 8.0 | 0.00 | 0.01 | 0.01 | 64 | 1013.5 |
| 20260506220033 | 67 | 88 | 3.0 | 8.0 | 0.00 | 0.01 | 0.01 | 63 | 1013.4 |
| 20260506215507 | 67 | 58 | 2.0 | 7.0 | 0.00 | 0.01 | 0.01 | 64 | 1013.5 |
| 20260506215011 | 66 | 61 | 2.0 | 9.0 | 0.00 | 0.01 | 0.01 | 63 | 1013.4 |
| 20260506214527 | 66 | 37 | 2.0 | 9.0 | 0.00 | 0.01 | 0.01 | 65 | 1013.3 |
| 20260506214004 | 67 | 19 | 3.0 | 9.0 | 0.00 | 0.01 | 0.01 | 65 | 1013.5 |
| 20260506213504 | 66 | 17 | 1.0 | 9.0 | 0.00 | 0.01 | 0.01 | 64 | 1013.5 |
| 20260506213013 | 66 | 15 | 2.0 | 6.0 | 0.00 | 0.01 | 0.01 | 65 | 1013.4 |
| 20260506212505 | 65 | 250 | 2.0 | 7.0 | 0.00 | 0.01 | 0.01 | 66 | 1013.4 |
| 20260506212009 | 66 | 9 | 3.0 | 7.0 | 0.00 | 0.01 | 0.01 | 64 | 1013.5 |
| 20260506211526 | 66 | 63 | 2.0 | 5.0 | 0.00 | 0.01 | 0.01 | 66 | 1013.8 |
| 20260506211009 | 65 | 22 | 2.0 | 4.0 | 0.00 | 0.01 | 0.01 | 66 | 1013.8 |
| 20260506210508 | 65 | 19 | 1.0 | 8.0 | 0.00 | 0.01 | 0.01 | 66 | 1013.8 |
| 20260506210023 | 64 | 30 | 3.0 | 8.0 | 0.00 | 0.01 | 0.01 | 66 | 1013.8 |
| 20260506205507 | 64 | 330 | 1.0 | 6.0 | 0.00 | 0.01 | 0.01 | 67 | 1013.9 |
| 20260506205013 | 64 | 352 | 3.0 | 6.0 | 0.00 | 0.01 | 0.01 | 66 | 1013.9 |
| 20260506204528 | 64 | 81 | 0.0 | 5.0 | 0.00 | 0.01 | 0.01 | 67 | 1014.0 |
| 20260506204008 | 64 | 325 | 3.0 | 5.0 | 0.00 | 0.01 | 0.01 | 66 | 1013.9 |
| 20260506203515 | 64 | 5 | 2.0 | 5.0 | 0.00 | 0.01 | 0.01 | 67 | 1014.3 |
| 20260506203014 | 63 | 25 | 0.0 | 5.0 | 0.00 | 0.01 | 0.01 | 67 | 1014.2 |
| 20260506202505 | 63 | 15 | 2.0 | 5.0 | 0.00 | 0.01 | 0.01 | 68 | 1014.0 |
| 20260506202003 | 63 | 5 | 2.0 | 7.0 | 0.00 | 0.01 | 0.01 | 68 | 1014.0 |
| 20260506201517 | 62 | 341 | 2.0 | 7.0 | 0.00 | 0.01 | 0.01 | 68 | 1014.4 |
| 20260506201005 | 62 | 35 | 1.0 | 7.0 | 0.00 | 0.01 | 0.01 | 69 | 1014.3 |
| 20260506200507 | 62 | 20 | 2.0 | 5.0 | 0.00 | 0.01 | 0.01 | 68 | 1014.5 |
| 20260506200021 | 62 | 348 | 2.0 | 5.0 | 0.00 | 0.01 | 0.01 | 69 | 1014.7 |
| 20260506195508 | 61 | 360 | 0.0 | 5.0 | 0.00 | 0.01 | 0.01 | 70 | 1014.6 |
| 20260506195011 | 61 | 323 | 3.0 | 5.0 | 0.00 | 0.01 | 0.01 | 69 | 1014.6 |
| 20260506194532 | 61 | 352 | 3.0 | 8.0 | 0.00 | 0.01 | 0.01 | 69 | 1014.8 |
| 20260506194013 | 61 | 315 | 2.0 | 8.0 | 0.00 | 0.01 | 0.01 | 69 | 1014.8 |
| 20260506193508 | 61 | 5 | 3.0 | 7.0 | 0.00 | 0.01 | 0.01 | 69 | 1014.7 |
| 20260506193027 | 62 | 13 | 2.0 | 6.0 | 0.00 | 0.01 | 0.01 | 69 | 1014.7 |
| 20260506192510 | 62 | 47 | 2.0 | 6.0 | 0.00 | 0.01 | 0.01 | 70 | 1014.9 |
| 20260506192004 | 62 | 24 | 1.0 | 6.0 | 0.00 | 0.01 | 0.01 | 69 | 1015.0 |